Content
SEND FEEDBACK

Daily
Averages
Monthly
Summary
United States of America

ST. LOUIS, MISSOURI


Home > North America > United States > Missouri
Elevation: 535 feet     Latitude: 38 45N     Longitude: 090 22W

WEATHER
 
SELECT A DAY
Number of Records: 196,446;   Date Range: 1/1/95 - 8/12/14
 
SHARE

PRINT THIS DATA

[ ← Previous Day ]
WEATHER ALMANAC - MARCH 29, 2014
[ Next Day → ]
[ °C ]   °F
Weather ElementAverageHighLow
Temperature41.3 °F48.2 °F (3:24 pm)28 °F (11:54 pm)
Dewpoint32.5 °F37.4 °F (12:24 am)25 °F (11:54 pm)
Humidity71.8 %89 % (10:54 pm)50 % (3:24 pm)
Barometer30.19 in30.29 in (8:54 pm)30.08 in (3:06 am)
Wind Speed7.3 mph13.8 mph (2:54 pm)
Weather ElementAverage
Visibility7.7 mi
Wind DirectionWSW (238 °)

Weather ElementTotal
Precipitation---
Heating Degree Days26.9 (Base 65)
Averaged from 30 records on March 29, 2014
WEATHER CONDITIONS BREAKOUT
WIND DIRECTION BREAKOUT
WEATHER BY HOUR - MARCH 29, 2014
[ °C ]   °F
Local TimeTemperatureDewpointHumidityBarometerVisibilityWind DirectionWind SpeedGust SpeedPrecipitationEventsConditions
12:24 AM42.8 °F37.4 °F81 %30.11 in10.0 miNE (40°)5.8 mphOvercast
12:54 AM43.0 °F36.0 °F76 %30.12 in10.0 miNE (40°)5.8 mphOvercast
1:22 AM42.8 °F35.6 °F76 %30.11 in10.0 miNE (40°)4.6 mphOvercast
1:54 AM42.1 °F36.0 °F79 %30.12 in10.0 miNorth (360°)6.9 mphClear
2:54 AM41.0 °F35.1 °F79 %30.09 in10.0 miNNW (340°)6.9 mphScattered Clouds
3:06 AM41.0 °F35.6 °F81 %30.08 in10.0 miNNW (330°)6.9 mphMostly Cloudy
3:54 AM41.0 °F35.1 °F79 %30.10 in9.0 miNNW (340°)10.4 mphOvercast
4:54 AM39.9 °F34.0 °F79 %30.11 in8.0 miNNW (340°)6.9 mphOvercast
5:38 AM39.2 °F33.8 °F81 %30.11 in8.0 miNNW (340°)5.8 mphOvercast
5:54 AM39.9 °F34.0 °F79 %30.13 in8.0 miNNW (330°)6.9 mphOvercast
6:20 AM39.2 °F33.8 °F81 %30.12 in8.0 miNNW (340°)4.6 mphOvercast
6:54 AM39.9 °F34.0 °F79 %30.15 in5.0 miNorth (350°)9.2 mphHaze
7:54 AM39.9 °F33.1 °F77 %30.18 in7.0 miNNW (340°)10.4 mphOvercast
8:54 AM39.9 °F33.1 °F77 %30.20 in7.0 miNW (320°)9.2 mphOvercast
9:54 AM41.0 °F33.1 °F73 %30.22 in8.0 miNNW (330°)9.2 mphOvercast
10:54 AM42.1 °F32.0 °F67 %30.23 in6.0 miNorth (350°)12.7 mphHaze
11:54 AM43.0 °F32.0 °F65 %30.23 in9.0 miNNW (330°)11.5 mphOvercast
12:54 PM44.1 °F30.9 °F60 %30.23 in7.0 miNNW (330°)11.5 mphOvercast
1:54 PM44.1 °F32.0 °F63 %30.23 in8.0 miNNW (330°)10.4 mphOvercast
2:54 PM46.0 °F32.0 °F58 %30.22 in5.0 miNNW (330°)13.8 mphHaze
3:24 PM48.2 °F30.2 °F50 %30.21 in7.0 miNNW (330°)10.4 mphOvercast
3:54 PM48.0 °F30.9 °F52 %30.23 in7.0 miNNW (330°)11.5 mphMostly Cloudy
4:54 PM48.0 °F30.9 °F52 %30.23 in5.0 miNorth (350°)8.1 mphHaze
5:54 PM48.0 °F30.9 °F52 %30.24 in7.0 miNorth (10°)8.1 mphHaze
6:54 PM45.0 °F30.9 °F58 %30.27 in8.0 miNNE (20°)9.2 mphClear
7:54 PM43.0 °F30.0 °F60 %30.27 in9.0 miCalmClear
8:54 PM35.1 °F28.9 °F78 %30.29 in7.0 miCalmClear
9:54 PM34.0 °F30.0 °F85 %30.28 in7.0 miCalmClear
10:54 PM30.9 °F28.0 °F89 %30.28 in5.0 miWSW (250°)3.5 mphClear
11:54 PM28.0 °F25.0 °F88 %30.28 in5.0 miCalmClear
Hourly data recorded from KSUS, located miles away from St. Louis, Missouri







STORIES FROM OUR PARTNERS